www.pogodaiklimat.ru

Погода и климат >> Архив погоды >> Боливия >> San Matias


ПОГОДА в San Matias

  • Прогноз погоды в San Matias
  • Монитор погоды в San Matias
  • Климат города

АРХИВ ПОГОДЫ в San Matias

Время (UTC), дата Ветер
(напр.,м/с)
 
Видим.   Явления Облачность Т
(С)
Тd
(С)
f
(%)
Тe
(С)
Тes
(С)
Комфортность P
(гПа)
Po
(гПа)
Тmin
(С)
Tmax
(С)
R
(мм)
R24
(мм)
S
(см)
12 9.07 Ю 2 30 км 10/10 450 м
[Sc]
+14.0 +10.5 79 +13 +13 1029.5 1018.0 +13.0
15 9.07 Ю 5 30 км 10/10 450 м
[Sc]
+15.5 +10.2 71 +14 +14 1031.0 1019.5
18 9.07 Ю 6 30 км 10/10 800 м
[Sc]
+17.0 +10.1 64 +16 +16 1029.2 1018.0
21 9.07 Ю 5 30 км 10/10 500 м
[Sc]
+16.0 +10.0 68 +15 +15 1028.5 1017.5 +17.4
12 10.07 Ю 2 30 км 10/10 450 м
[Sc]
+13.1 +9.5 79 +12 +12 1030.2 1019.5 +12.0
15 10.07 Ю 4 30 км 10/10 500 м
[Sc]
+16.1 +10.4 69 +15 +15 1030.0 1019.8
18 10.07 Ю 2 30 км 10/10 600 м
[Sc]
+17.0 +10.1 64 +17 +17 1027.0 1015.0
21 10.07 штиль 0 30 км 1/1 600 м
[Sc]
+19.0 +11.9 63 +20 +20 1025.0 1013.0 +19.3
12 11.07 штиль 0 30 км ясно +13.0 +10.9 87 +13 +16 1025.0 1013.0 +8.0
15 11.07 Ю 3 30 км ясно +21.2 +11.3 53 +23 +34 комфорт 1024.7 1012.8
18 11.07 штиль 0 30 км ясно +25.0 +12.2 45 +27 +39 жарко 1021.5 1009.0
21 11.07 штиль 0 30 км ясно +25.3 +13.9 49 +28 +28 жарко 1019.7 1007.0 +27.0
12 12.07 штиль 0 30 км ясно +19.2 +18.0 93 +21 +25 комфорт 1023.5 1011.0 +17.0
15 12.07 штиль 0 30 км 6/0
[Ci sp]
+25.8 +16.0 55 +29 +45 душно 1023.0 1011.0
18 12.07 штиль 0 30 км 8/0
[Ci sp]
+31.0 +16.2 41 +34 +45 душно 1020.0 1008.0
21 12.07 штиль 0 30 км 9/0
[Ci sp]
+30.5 +18.6 49 +35 +36 очень
душно
1019.5 1006.8 +32.0
12 13.07 штиль 0 30 км 6/0
[Ci sp]
+17.0 +15.4 90 +17 +20 1021.5 1010.0 +14.5
15 13.07 штиль 0 30 км 10/0
[Ci sp]
+27.8 +19.2 60 +33 +47 очень
душно
1022.0 1010.3
18 13.07 штиль 0 30 км 10/0
[Ci sp]
+31.7 +19.2 48 +37 +48 очень
душно
1019.0 1007.0
21 13.07 штиль 0 30 км 8/0
[Ci sp]
+31.3 +20.0 51 +38 +38 очень
душно
1017.3 1001.0 +33.4
12 14.07 штиль 0 30 км 10/0
[Ci sp]
+19.0 +15.9 82 +20 +23 1019.0 1007.1 +16.0
15 14.07 штиль 0 30 км 10/0
[Ci sp]
+27.2 +19.5 63 +33 +47 очень
душно
1019.5 1007.8
18 14.07 штиль 0 30 км 10/0
[Ci sp]
+33.0 +18.7 43 +38 +48 очень
душно
1017.0 1005.0
21 14.07 штиль 0 30 км 10/0
[Ci sp]
+32.0 +19.2 47 +38 +38 очень
душно
1014.5 1002.0 +33.8
12 15.07 штиль 0 30 км 10/0
[Ci sp]
+19.8 +17.7 88 +22 +25 комфорт 1017.5 1005.0 +17.0
15 15.07 штиль 0 30 км 10/0
[Ci sp]
+27.5 +18.3 57 +32 +46 очень
душно
1019.0 1007.0
18 15.07 С 3 30 км 10/0
[Ci sp]
+31.8 +19.0 47 +37 +43 очень
душно
1016.5 1004.0
21 15.07 штиль 0 30 км 10/0
[Ci sp]
+32.0 +19.2 47 +38 +38 очень
душно
1015.4 1002.7 +33.4

 

Местоположение метеостанции San Matias (Боливия): широта -16.33 долгота -58.38 высота над уровнем моря 124 м.

В архиве по умолчанию представлена погода в San Matias за последнюю неделю. Архивные данные за месяц целиком и за предыдущие месяцы, начиная с января 2011 года, Вы можете получить, выбрав интересующий диапазон дат из раскрывающегося списка и нажав кнопку "Ввод!".


*Определитесь, кто Вы:
робот инопланетянин человек

Внимание! Время в таблицах - всемирное. Для получения местного времени необходимо прибавить поправку, которая в San Matias равна -4 ч.

Смотрите также архив погоды в соседних городах и на ближайших метеорологических станциях:

Погода в Caceres (Бразилия) (81 км)
Погода в Salto do Ceu (Бразилия) (136 км)
Погода в Pontes E Lacerda (Бразилия) (159 км)
Погода в Porto Estrela (Бразилия) (166 км)
Погода в Vila Bela da S Trind (Бразилия) (212 км)
Погода в Tangara da Serra (Бразилия) (213 км)
Погода в Cuiaba (Бразилия) (255 км)
Погода в Cuiaba (Бразилия) (256 км)
Погода в Robore (Боливия) (265 км)
Погода в San Ignacio De Velasco (Боливия) (275 км)

Пояснения к столбцам:

Ветер - указаны скорость ветра в м/с - средняя за 10 мин, порывы в срок и между сроками (в фигурных скобках) и направление, откуда дует ветер: С - северный, СВ - северо-восточный, В - восточный, ЮВ - юго-восточный, Ю - южный, ЮЗ - юго-западный, З - западный, СЗ - северо-западный.
Видимость - горизонтальная дальность видимости в метрах или километрах. При видимости от 1 до 10 км при отсутствии осадков обычно наблюдается дымка, при ухудшении видимости до 1 км и менее - туман. В сухую погоду видимость может ухудшаться дымом, пылью или мглою.
Явления - указаны атмосферные явления, наблюдавшиеся в срок или в последний час перед сроком; фигурными скобками обозначены явления, наблюдавшиеся между сроками (за 1-3 часа до срока); квадратными скобками обозначены град или гололедные отложения с указанием их диаметра в мм.
Облачность - указаны через наклонную черту общая и нижняя облачность в баллах и высота нижней границы облаков в метрах; квадратными скобками обозначены формы облаков: Ci - перистые, Cs - перисто-слоистые, Cc - перисто-кучевые, Ac - высококучевые, As - высокослоистые, Sc - слоисто-кучевые, Ns - слоисто-дождевые, Cu - кучевые, Cb - кучево-дождевые. Подробнее классификацию облаков см. в Атласе облаков (PDF).
T - Температура воздуха - температура, измеренная на высоте 2 м над землей.
Td - Температура точки росы - температура, при понижении до которой содержащийся в воздухе водяной пар достигнет насыщения.
f - Относительная влажность воздуха - влажноcть воздуха, измеренная на высоте 2 м над землей.
Te - Эффективная температура - температура, которую ощущает одетый по сезону человек в тени. Характеристика душности погоды. При расчете учитывается влияние влажности воздуха и скорости ветра на теплоощущения человека.
Tes - Эффективная температура на солнце - температура, которую ощущает человек, с поправкой на солнечный нагрев. Характеристика знойности погоды. Зависит от высоты солнца над горизонтом, облачности и скорости ветра. Ночью, в пасмурную погоду, а также при ветре 12 м/с и более поправка равна нулю.
P - Атмосферное давление - приведенное к уровню моря атмосферное давление.
Po - Атмосферное давление - измеренное на уровне метеостанции атмосферное давление.
Tmin - Минимальная температура - минимум температуры воздуха на высоте 2 м над землей.
Tmax - Максимальная температура - максимум температуры воздуха на высоте 2 м над землей.
R - Количество осадков - Количество выпавших осадков за период времени, мм. При наведении курсора мыши на число - период времени, за который выпало указанное количество осадков.
R24 - Количество осадков - Количество выпавших осадков за 24 часа, мм.
S - Снежный покров - Высота снежного покрова, см. При наведении курсора мыши на число - состояние снежного покрова и степень покрытия местности в баллах.